Probability
0 0 1 2 2 1 0 0 0 0 0 0 0 0 0 0 0 0 1 1 2 1 0 0 0 0 0 0 0 1 2 2 1 0 0 0 0 0 0 0 0 0 0 0 0 0 0 0 0
0 0 0 1 1 0 0 0 0 0 0 0 0 0 0 0 0 1 1 2 2 2 0 0 0 0 0 0 1 2 3 2 1 0 0 0 0 0 0 0 0 0 0 0 0 0 0 0 0
0 0 0 0 0 0 0 0 0 0 0 0 0 0 0 0 0 1 3 4 3 2 0 0 0 0 0 0 1 2 3 2 1 0 0 0 0 0 0 0 0 0 0 0 0 0 0 0 0
0 0 0 0 0 0 0 0 0 0 0 0 0 0 0 0 0 2 4 6 5 3 1 0 0 0 1 2 3 3 1 1 0 0 0 0 0 0 0 0 0 0 0 0 0 0 0 0 0
0 0 0 0 0 0 0 0 0 0 0 0 0 0 1 1 2 4 6 7 6 3 1 0 0 1 2 4 5 3 1 0 0 0 0 0 0 0 0 0 0 0 0 0 0 0 0 0 0
0 0 0 0 0 0 0 0 0 0 0 0 0 1 2 3 4 6 6 6 6 3 1 0 0 1 3 5 6 4 1 0 0 0 0 0 0 0 0 0 0 0 0 0 0 0 0 0 0
0 0 0 0 0 0 0 0 0 0 0 0 0 1 5 9 8 6 6 6 5 3 1 0 0 0 1 3 4 3 1 0 0 0 0 0 0 0 0 0 0 0 0 0 0 0 0 0 0
0 0 0 0 0 0 0 0 0 0 0 0 0 1 9 17 14 7 5 5 4 2 1 0 0 0 0 1 2 2 1 0 0 0 0 0 0 0 0 0 0 0 0 0 0 0 0 0 0
0 0 0 0 0 0 0 0 0 0 0 0 1 4 16 28 25 15 9 6 4 2 1 0 0 0 0 0 0 0 0 0 0 0 0 0 0 0 0 0 0 0 0 0 0 0 0 0 0
0 0 0 0 0 0 0 0 0 0 0 1 4 12 27 38 35 25 16 10 5 2 1 0 0 0 0 0 0 0 0 0 0 0 0 0 0 0 0 0 0 0 0 0 0 0 0 0 0
0 0 0 0 0 0 0 0 0 0 0 1 7 22 36 43 41 32 22 13 7 4 2 1 1 2 1 0 0 0 1 0 0 0 0 0 0 0 0 0 0 0 0 0 0 0 0 0 0
0 0 0 0 0 0 0 0 0 0 0 1 10 27 38 42 41 34 24 16 10 6 4 4 4 4 4 3 2 2 2 1 1 2 1 0 0 0 0 0 0 0 0 0 0 0 0 0 0
0 0 0 0 0 0 0 0 0 0 0 3 12 27 36 37 38 34 25 19 14 9 7 7 7 6 6 7 6 5 5 3 2 3 3 1 0 0 0 0 0 0 0 0 0 0 0 0 0
0 0 0 0 0 0 0 0 0 0 1 5 12 22 30 35 36 35 30 25 20 13 10 11 11 9 8 8 8 8 7 5 4 4 4 2 1 1 0 0 0 0 0 0 0 0 0 0 0
0 0 0 0 0 0 0 0 0 0 1 5 9 17 26 34 36 35 34 30 24 17 15 15 14 12 10 9 8 8 7 6 4 4 5 4 3 2 1 1 1 1 0 0 0 0 0 0 0
0 0 0 0 0 0 0 0 0 0 1 4 8 15 24 31 33 32 31 29 24 21 22 20 18 16 14 12 10 8 7 5 5 7 8 5 3 3 3 2 2 2 1 0 0 0 0 0 0
0 0 0 0 0 0 0 0 0 0 1 3 8 15 23 30 33 31 28 26 23 23 26 25 22 19 16 14 12 10 8 6 6 9 9 7 5 4 4 3 3 2 1 0 0 0 0 0 0
0 0 0 0 0 0 0 0 0 0 1 3 8 14 20 27 33 34 30 26 23 22 27 29 27 24 20 18 16 13 11 10 7 7 7 7 6 6 5 4 4 3 1 0 0 0 0 0 0
0 0 0 0 0 0 0 0 0 1 1 3 7 11 15 22 29 34 34 32 30 27 28 31 31 30 30 28 24 19 17 15 10 8 7 7 6 6 5 4 4 2 1 0 0 1 1 0 0
0 0 0 0 1 1 0 0 0 0 0 2 4 7 11 17 26 34 37 39 39 37 36 36 36 37 39 38 33 26 22 18 13 12 12 9 6 5 5 4 3 1 0 0 1 1 1 1 1
0 0 0 0 0 1 1 0 0 0 0 2 4 7 10 15 25 37 42 43 45 45 44 43 43 43 44 44 39 30 25 20 15 15 17 16 11 8 6 6 4 2 1 1 1 1 1 0 0
0 0 0 0 0 0 0 0 0 1 1 3 7 11 12 15 23 35 43 45 46 46 46 47 48 48 49 50 43 33 25 19 16 17 19 20 17 12 10 9 8 5 3 2 2 2 2 1 0
0 0 0 0 0 0 0 0 0 1 2 3 6 9 11 14 21 31 38 41 41 42 43 45 48 51 54 53 47 36 27 21 19 20 21 21 21 17 12 12 12 10 7 6 7 8 5 3 2
0 0 0 0 0 0 0 0 0 1 1 2 4 5 7 13 20 26 32 38 39 39 38 39 44 51 55 54 48 40 32 29 29 28 26 23 22 20 16 15 17 16 12 11 15 15 12 9 7
0 0 0 0 0 0 0 0 1 1 1 2 4 6 8 14 20 25 31 37 39 37 34 35 39 45 49 48 45 40 37 38 37 33 29 23 20 21 20 19 20 19 16 15 17 18 17 16 15
0 0 0 0 0 0 0 0 1 1 1 3 7 11 14 17 22 27 31 33 33 31 29 32 36 37 38 38 36 35 36 38 35 30 25 21 18 20 22 21 22 21 17 16 17 17 19 20 20
0 0 0 0 0 0 0 0 0 0 1 3 8 13 17 21 24 26 29 30 27 24 24 28 31 30 30 31 30 30 31 31 29 26 24 22 20 19 21 22 23 22 19 17 16 17 18 20 20
0 0 0 0 0 0 0 0 0 0 0 3 7 12 16 20 23 24 26 27 25 22 21 24 27 27 27 29 29 27 25 22 22 23 23 24 22 20 18 19 22 23 20 16 15 16 17 18 18
0 0 0 0 0 0 0 0 0 0 1 3 8 11 13 16 18 21 22 24 24 22 21 22 24 24 24 26 26 23 19 15 15 18 20 22 21 18 15 15 18 19 17 15 15 16 15 14 14
0 0 0 0 0 0 0 0 0 0 1 4 8 10 11 12 15 17 19 22 24 23 20 20 21 20 21 23 22 19 16 12 12 15 17 19 19 16 15 15 16 16 14 15 17 15 12 12 11
Wind_Speed
9 8 5 5 7 3 7 7 5 6 5 5 4 2 2 4 5 7 10 17 18 18 18 17 14 14 14 14 15 15 15 15 15 14 14 13 13 13 13 13 13 13 14 15 15 15 15 14 14
6 5 6 7 5 4 7 5 5 5 6 6 5 3 3 6 8 10 13 17 19 18 17 16 16 15 14 15 14 15 15 14 14 14 13 13 13 13 13 13 13 13 14 14 14 15 15 14 14
6 6 7 5 2 3 6 5 5 5 6 5 4 4 5 6 8 10 14 19 18 17 17 17 17 15 15 14 14 14 14 14 14 13 13 13 12 12 13 13 13 13 14 14 14 14 14 14 14
5 6 6 6 3 4 3 3 3 6 5 4 4 7 7 6 6 11 18 19 18 17 17 18 16 16 15 14 14 14 14 13 13 13 12 12 12 12 13 12 13 13 13 14 14 14 13 13 13
6 6 7 5 3 3 1 1 3 4 5 5 4 7 8 6 9 17 19 19 18 17 17 19 16 16 15 14 14 13 13 13 13 12 12 12 12 12 12 12 12 13 13 13 13 12 12 12 12
6 6 7 4 5 2 2 2 3 3 5 6 6 7 8 8 13 18 18 17 17 17 17 18 17 15 15 14 14 13 13 12 12 12 12 12 12 12 12 12 12 12 12 12 12 12 11 11 12
7 6 5 2 4 4 3 1 3 3 5 6 5 7 9 10 14 17 16 16 16 16 16 16 16 15 14 13 13 13 12 12 12 12 12 12 12 12 12 11 12 12 12 12 11 11 11 11 11
6 6 6 5 4 4 3 1 2 3 4 5 5 5 10 14 16 17 15 15 14 14 15 15 15 14 14 14 13 13 12 12 11 12 12 12 12 12 11 11 11 11 11 11 11 10 10 10 10
7 9 7 5 3 4 2 1 2 2 6 6 3 3 12 21 19 17 16 14 14 14 13 14 14 13 13 13 14 13 12 11 11 11 12 12 10 10 10 12 11 11 11 10 10 10 10 10 10
8 9 5 1 1 1 1 2 2 6 8 8 8 10 19 22 21 19 18 18 17 16 15 13 13 13 12 10 11 9 10 10 9 9 10 7 6 5 8 12 10 10 10 10 9 9 9 7 8
9 8 2 3 2 3 3 3 3 6 7 9 12 17 21 22 21 19 19 18 17 16 15 13 13 11 11 9 9 6 6 7 7 9 8 6 6 6 7 7 8 8 9 8 9 8 5 4 4
9 8 6 5 3 5 5 5 5 7 4 2 10 20 23 23 22 20 19 18 17 17 16 14 14 11 10 9 7 7 6 6 6 8 8 7 4 4 5 4 5 6 4 4 4 3 4 4 4
13 8 8 8 8 8 8 9 7 7 3 4 11 19 22 22 20 18 17 16 17 16 16 15 14 13 11 8 7 7 6 7 7 6 6 6 5 5 5 4 3 4 4 5 4 3 4 4 4
9 10 9 9 9 8 10 9 8 6 4 8 14 18 20 20 20 19 18 18 17 17 16 14 14 13 11 9 7 6 7 6 6 7 8 7 5 5 5 5 4 4 4 3 3 4 4 3 3
8 10 11 11 10 7 8 11 11 5 6 9 13 15 18 18 19 20 19 18 17 17 16 15 14 13 13 11 10 7 7 7 7 6 8 8 7 6 5 5 5 4 4 4 3 4 4 4 3
11 12 12 9 8 8 10 12 8 5 8 9 11 13 15 17 18 17 17 16 16 16 16 15 13 14 13 11 9 7 7 7 6 7 7 9 7 7 6 5 5 5 5 5 4 3 3 3 3
12 13 12 8 8 7 11 9 5 5 8 9 10 12 14 15 17 16 16 16 16 16 16 16 15 15 13 12 9 8 7 7 6 7 7 8 8 8 7 5 4 6 5 4 4 4 3 3 3
12 12 11 9 7 7 11 8 4 5 7 9 10 11 13 15 16 16 15 15 15 15 15 15 15 14 13 10 9 7 8 8 7 7 7 9 7 8 7 6 6 7 5 5 3 4 3 2 3
7 10 10 7 4 7 9 8 6 5 7 9 10 11 12 12 14 14 14 15 15 15 16 15 15 14 12 10 10 9 9 9 8 8 9 9 9 8 7 6 7 6 5 5 6 5 5 4 3
11 11 10 6 4 7 7 8 6 6 7 7 9 10 11 11 13 14 15 15 16 16 16 15 15 15 14 11 10 9 9 8 8 8 9 10 10 9 8 7 7 7 5 6 6 5 4 4 4
14 13 10 7 5 7 8 10 8 7 6 7 8 8 10 11 13 15 15 15 15 16 17 14 15 15 15 13 9 8 7 7 8 9 9 11 11 10 9 9 8 7 8 7 7 7 7 5 5
14 11 9 8 9 8 8 9 9 8 8 8 8 8 9 10 12 13 14 15 15 15 14 15 15 15 15 14 12 13 11 11 11 10 9 11 12 11 11 10 10 9 8 7 8 8 6 6 5
9 7 10 10 10 9 9 10 7 8 8 8 7 8 8 9 11 12 13 14 14 14 13 13 14 15 15 15 14 14 13 11 9 10 11 11 11 12 12 11 10 9 8 8 8 6 8 7 7
8 8 8 8 10 12 10 10 7 6 6 5 6 6 6 8 9 10 11 11 11 12 12 12 14 14 15 16 16 16 16 13 12 12 11 11 9 10 13 12 11 10 9 9 8 8 10 8 7
14 12 9 11 10 9 7 9 4 3 2 2 4 5 6 7 8 9 10 10 11 12 12 12 13 13 15 15 15 16 16 15 14 13 12 10 9 9 11 11 10 10 9 9 9 9 9 9 8
18 17 10 8 10 8 7 8 3 4 3 2 3 4 5 6 7 7 8 9 9 11 11 11 12 13 14 15 14 14 15 12 11 13 11 11 9 9 10 11 11 11 11 10 9 8 9 8 8
18 16 12 8 6 6 8 5 5 5 5 5 5 5 6 6 6 6 7 7 8 9 9 11 11 11 12 13 13 13 14 13 12 11 11 9 9 8 10 11 12 12 11 10 10 8 9 8 9
14 14 9 10 8 9 8 8 6 9 8 7 6 5 5 6 6 6 6 6 6 6 7 8 9 9 10 11 11 10 12 12 12 10 11 11 11 10 10 11 12 11 11 11 10 9 9 9 8
14 14 12 11 9 8 7 5 3 4 5 6 6 5 6 6 7 6 5 5 5 6 6 7 8 8 8 9 9 9 10 11 11 10 11 11 10 11 11 12 12 12 11 11 10 10 9 10 9
15 14 14 11 9 8 6 4 6 4 5 5 6 6 6 6 6 6 6 6 5 5 6 6 6 7 7 8 8 9 9 9 10 10 10 10 11 11 12 12 12 12 12 11 12 12 11 10 10
Wind_Direction
200 206 226 240 237 193 82 76 69 87 88 88 106 91 48 34 16 72 118 143 141 140 138 145 143 138 134 132 129 128 128 127 125 123 121 119 116 113 111 111 109 108 108 108 109 110 108 108 108
198 209 234 242 254 117 91 80 83 70 87 111 117 115 84 70 59 105 137 141 144 141 142 144 141 139 135 133 131 129 129 128 127 125 124 122 119 115 113 111 110 109 109 109 109 109 109 109 109
204 233 260 251 253 57 84 85 83 102 122 135 118 78 54 72 106 128 138 145 145 142 142 136 145 141 138 135 133 132 131 131 130 129 127 124 120 117 114 112 112 111 110 110 110 109 109 109 111
218 227 238 246 156 74 51 85 114 135 137 139 133 104 81 73 119 132 141 149 146 146 143 138 147 143 141 139 137 135 134 133 132 129 127 124 121 119 117 115 112 112 112 111 111 111 110 111 112
241 253 237 210 134 99 79 87 171 164 150 146 143 107 94 91 116 135 147 151 151 148 142 141 149 146 144 142 140 138 136 134 131 129 127 124 123 119 118 116 115 114 113 113 114 113 112 112 112
234 245 239 188 133 128 125 149 197 180 151 149 148 121 95 116 135 146 150 154 152 148 143 140 149 148 147 145 143 141 139 136 134 132 129 126 124 121 119 117 118 117 117 116 115 113 112 111 113
257 254 248 206 152 142 92 166 209 189 174 161 152 126 118 139 144 149 150 156 152 151 145 149 153 152 150 148 146 145 142 139 137 134 131 128 125 122 120 118 118 118 119 118 117 115 114 116 117
271 262 225 201 193 129 100 166 208 212 154 133 167 154 143 150 150 149 153 155 154 154 152 155 155 155 158 154 150 147 145 143 141 137 135 131 128 127 127 130 119 121 120 119 119 117 116 120 122
249 247 222 192 195 129 119 180 135 168 146 157 166 82 126 143 151 153 156 158 161 161 159 160 156 161 163 157 150 155 152 149 150 146 141 154 153 142 150 115 124 125 122 121 121 120 121 129 131
230 242 222 131 273 118 170 217 164 184 175 167 143 117 132 149 158 162 166 167 168 167 167 166 161 165 165 156 153 164 163 158 169 151 156 160 135 137 121 118 129 128 127 129 124 128 152 178 143
226 248 242 217 243 288 256 231 213 219 201 188 173 154 154 160 165 170 174 173 170 170 171 168 165 171 167 160 162 166 161 157 164 155 158 146 147 145 137 146 144 144 155 153 145 172 169 141 115
230 239 244 243 255 270 269 259 242 240 244 165 166 161 163 169 172 176 177 176 172 174 175 171 168 171 174 170 165 169 165 165 163 156 170 154 154 154 142 153 152 156 157 146 160 153 129 123 137
227 234 233 245 253 263 266 255 253 250 234 157 155 163 172 174 175 175 176 177 176 178 177 173 174 172 174 173 178 175 169 168 158 158 167 165 160 161 148 149 159 165 151 162 166 155 140 145 151
225 233 239 243 247 248 253 249 237 233 185 165 166 173 179 178 175 174 177 181 181 182 179 174 180 176 176 177 182 174 172 167 168 169 165 179 167 158 157 164 171 167 165 154 162 152 161 169 151
231 234 233 230 231 231 242 235 225 208 183 180 179 180 181 180 179 181 181 182 183 183 178 177 183 180 182 182 184 181 179 176 177 167 167 180 178 164 173 171 179 171 158 154 176 159 172 177 172
218 226 225 201 211 209 229 229 192 178 193 191 185 181 181 181 186 186 180 181 183 183 179 181 183 183 185 185 188 185 185 180 180 175 173 181 181 177 186 183 183 166 178 180 169 187 183 175 178
209 221 217 182 196 205 227 239 169 182 203 196 189 183 182 180 188 187 183 184 185 184 182 183 186 184 186 186 186 192 186 186 185 184 179 179 185 186 197 191 174 181 189 188 194 165 196 180 185
207 216 210 198 178 217 228 234 194 197 213 202 192 185 183 185 189 186 184 186 186 185 185 186 186 186 186 186 186 193 191 192 194 190 185 182 185 191 201 191 182 200 192 190 196 166 187 198 202
235 225 211 195 183 232 230 234 223 204 210 204 194 189 188 191 184 182 184 185 186 188 188 188 188 186 185 186 188 194 193 195 195 195 189 190 193 191 203 204 181 206 201 199 194 192 184 199 198
225 224 217 194 189 242 234 236 230 214 211 210 202 197 192 186 179 181 185 186 188 189 190 191 191 190 191 192 193 198 197 198 195 196 190 197 197 198 201 211 201 199 202 201 205 203 210 201 198
219 223 218 207 200 224 239 229 206 195 204 204 208 205 199 192 184 183 186 189 189 191 191 191 192 192 194 192 191 194 194 201 195 199 196 200 199 201 211 205 215 204 211 201 205 204 210 215 205
216 219 228 222 227 209 225 235 191 190 198 203 204 203 201 197 190 185 187 190 194 192 191 193 192 194 194 192 195 196 199 201 201 199 197 195 200 203 206 210 211 213 216 207 209 207 211 216 220
219 201 217 222 230 239 213 247 190 178 205 201 199 202 202 196 190 187 189 191 193 191 190 193 193 196 196 197 198 202 209 210 202 199 199 199 198 204 207 209 209 211 218 212 220 210 218 217 226
192 184 195 220 228 229 219 237 214 183 204 191 183 188 192 190 187 185 187 186 189 189 190 191 193 196 197 198 200 206 211 210 204 202 198 200 200 202 206 209 207 210 217 210 212 215 215 226 230
198 194 190 199 211 221 186 231 225 128 153 184 175 179 181 182 180 180 182 183 184 189 190 191 194 197 199 201 203 208 212 211 208 205 203 204 204 202 203 207 207 211 215 214 212 211 218 216 219
203 211 219 210 207 186 179 225 164 130 136 148 161 165 168 172 167 173 179 183 186 187 190 191 196 201 201 202 205 209 211 212 210 208 207 203 209 207 199 205 209 212 213 213 210 214 213 213 217
199 217 234 249 227 216 184 189 174 173 182 174 163 162 165 165 163 168 173 177 183 186 189 193 196 201 202 204 206 209 210 212 210 206 208 206 204 206 203 208 210 210 210 211 207 215 214 211 216
216 207 213 232 218 220 199 206 191 177 185 174 171 167 154 156 157 160 163 169 174 178 185 187 188 197 201 202 205 206 207 208 207 206 208 206 204 206 205 211 213 210 208 206 207 209 209 211 213
198 205 213 222 238 237 208 179 129 168 167 168 160 152 152 155 153 151 151 155 159 163 168 173 178 187 193 198 200 203 203 204 204 205 206 206 205 203 205 210 213 211 210 207 206 212 205 211 211
203 206 207 215 216 247 258 138 113 136 145 148 140 137 136 144 142 140 139 141 145 153 161 168 174 181 187 190 193 197 198 199 202 205 207 207 204 204 205 208 209 210 210 209 208 212 210 212 212